This is the latest recevied weather packets stored in our database for station/object KB3KAV. If no packets are shown the sender has not sent any weather packets the latest 10 day(s).
| Time | Temp. | Humidity | Pressure | Rain* | Wind** | Luminosity | Snow |
|---|---|---|---|---|---|---|---|
| 1777636920 | 5.56° C | 89% | 1043.2 hPa | 0 mm | - | 53 W/m² | - |
| 1777636318 | 4.44° C | 90% | 1043.3 hPa | 0 mm | - | 49 W/m² | - |
| 1777635715 | 3.33° C | 93% | 1043.2 hPa | 0 mm | - | 47 W/m² | - |
| 1777635114 | 2.78° C | 95% | 1043.3 hPa | 0 mm | - | 44 W/m² | - |
| 1777634513 | 2.22° C | 95% | 1043.3 hPa | 0 mm | - | 42 W/m² | - |
| 1777633911 | 2.22° C | 95% | 1043.7 hPa | 0 mm | - | 36 W/m² | - |
| 1777633307 | 1.11° C | 95% | 1043.2 hPa | 0 mm | - | 29 W/m² | - |
| 1777632707 | 0° C | 95% | 1042.9 hPa | 0 mm | - | 23 W/m² | - |
| 1777632106 | -0.56° C | 95% | 1043.2 hPa | 0 mm | - | 19 W/m² | - |
| 1777631502 | 0° C | 95% | 1042.9 hPa | 0 mm | - | 14 W/m² | - |
| 1777630901 | 0° C | 95% | 1042.8 hPa | 0 mm | - | 10 W/m² | - |
| 1777630299 | 0° C | 95% | 1042.8 hPa | 0 mm | - | 4 W/m² | - |
| 1777629695 | 0° C | 95% | 1042.5 hPa | 0 mm | - | 0 W/m² | - |
| 1777629092 | 0° C | 95% | 1042.5 hPa | 0 mm | - | 0 W/m² | - |
| 1777628492 | 0° C | 95% | 1042.4 hPa | 0 mm | - | 0 W/m² | - |
| 1777627890 | 0° C | 95% | 1042.8 hPa | 0 mm | - | 0 W/m² | - |
| 1777627289 | 0° C | 95% | 1042.4 hPa | 0 mm | - | 0 W/m² | - |
| 1777626689 | 0° C | 95% | 1042.5 hPa | 0 mm | - | 0 W/m² | - |
| 1777626083 | 0.56° C | 95% | 1042.3 hPa | 0 mm | - | 0 W/m² | - |
| 1777625481 | 0.56° C | 95% | 1042.2 hPa | 0 mm | - | 0 W/m² | - |
| 1777624878 | 0.56° C | 95% | 1042.2 hPa | 0 mm | - | 0 W/m² | - |
| 1777624274 | 0.56° C | 95% | 1042.2 hPa | 0 mm | - | 0 W/m² | - |
| 1777623670 | 1.11° C | 95% | 1042.2 hPa | 0 mm | - | 0 W/m² | - |
| 1777623070 | 1.11° C | 95% | 1042.1 hPa | 0 mm | - | 0 W/m² | - |
| 1777622469 | 1.11° C | 95% | 1042 hPa | 0 mm | - | 0 W/m² | - |
* Rain latest hour (hover to see other rain measurements)
** Current wind speed in m/s (hover to see current wind gust speed)